This is the latest recevied weather packets stored in our database for station/object 9A3SWO. If no packets are shown the sender has not sent any weather packets the latest 10 day(s).
| Time | Temp. | Humidity | Pressure | Rain* | Wind** | Luminosity | Snow |
|---|---|---|---|---|---|---|---|
| 1777594991 | 12.22° C | 45% | 1029.6 hPa | - | - | - | - |
| 1777594392 | 12.22° C | 45% | 1029.6 hPa | - | - | - | - |
| 1777593791 | 12.78° C | 45% | 1029.6 hPa | - | - | - | - |
| 1777593191 | 12.78° C | 45% | 1029.5 hPa | - | - | - | - |
| 1777592592 | 12.78° C | 45% | 1029.5 hPa | - | - | - | - |
| 1777591992 | 12.78° C | 44% | 1029.5 hPa | - | - | - | - |
| 1777591392 | 12.78° C | 45% | 1029.5 hPa | - | - | - | - |
| 1777590791 | 12.78° C | 45% | 1029.6 hPa | - | - | - | - |
| 1777590192 | 13.33° C | 44% | 1029.6 hPa | - | - | - | - |
| 1777589591 | 13.33° C | 44% | 1029.7 hPa | - | - | - | - |
| 1777588991 | 13.33° C | 44% | 1029.7 hPa | - | - | - | - |
| 1777588392 | 13.33° C | 44% | 1029.7 hPa | - | - | - | - |
| 1777587791 | 13.89° C | 44% | 1029.7 hPa | - | - | - | - |
| 1777587191 | 13.89° C | 44% | 1029.8 hPa | - | - | - | - |
| 1777586592 | 13.89° C | 44% | 1029.8 hPa | - | - | - | - |
| 1777585992 | 13.89° C | 44% | 1029.7 hPa | - | - | - | - |
| 1777585391 | 13.89° C | 44% | 1029.7 hPa | - | - | - | - |
| 1777584791 | 13.89° C | 44% | 1029.7 hPa | - | - | - | - |
| 1777584192 | 13.89° C | 43% | 1029.6 hPa | - | - | - | - |
| 1777583591 | 14.44° C | 43% | 1029.4 hPa | - | - | - | - |
| 1777582991 | 13.89° C | 43% | 1029.5 hPa | - | - | - | - |
| 1777582391 | 14.44° C | 43% | 1029.6 hPa | - | - | - | - |
| 1777581791 | 14.44° C | 43% | 1029.5 hPa | - | - | - | - |
| 1777581192 | 14.44° C | 43% | 1029.5 hPa | - | - | - | - |
| 1777580592 | 14.44° C | 43% | 1029.5 hPa | - | - | - | - |
* Rain since midnight (hover to see other rain measurements)
** Current wind speed in m/s (hover to see current wind gust speed)